Probability
0 0 0 0 0 0 0 0 0 1 7 17 20 17 13 14 18 24 27 29 36 46 49 49 50 49 48 48 47 44 40 40 44 45 42 40 39 37 36 33 32 29 25 23
0 0 0 0 0 0 0 0 1 2 8 16 19 17 15 16 19 24 26 27 33 43 48 49 50 50 51 53 51 46 40 39 43 44 42 41 40 38 37 37 35 31 27 25
1 1 0 0 1 1 2 2 3 5 10 14 15 15 16 16 18 21 24 26 32 41 46 47 48 50 51 55 55 49 43 41 43 44 44 43 42 40 41 42 40 35 29 27
2 2 1 1 2 3 5 6 7 8 11 13 14 15 17 17 17 19 23 27 32 37 41 44 47 49 50 51 52 49 46 45 45 45 46 46 46 46 47 46 44 39 33 31
2 2 1 2 3 4 6 9 11 13 14 15 16 17 21 21 19 21 24 27 29 30 34 40 46 51 50 48 47 46 46 46 48 48 48 50 51 52 52 50 46 43 39 37
1 1 2 3 3 4 6 10 16 20 21 20 20 21 23 25 24 24 26 27 27 28 32 40 48 52 51 48 47 47 46 48 51 52 53 54 56 57 55 52 48 46 44 43
0 1 4 5 5 7 11 14 19 23 24 24 25 25 25 27 28 28 29 29 30 32 37 44 49 51 51 51 51 52 52 53 54 55 55 56 59 60 58 54 50 48 47 46
1 3 7 10 11 15 19 20 20 22 23 25 27 27 27 29 28 28 29 31 33 37 41 45 49 49 49 50 54 56 56 55 55 53 50 53 59 61 59 56 51 49 48 48
4 6 10 15 17 19 20 20 21 20 20 23 25 27 28 26 23 23 27 30 33 38 41 44 47 48 47 48 51 55 55 52 49 47 47 51 58 59 58 56 51 47 47 47
10 9 11 15 17 17 16 19 20 18 19 21 23 26 27 23 22 25 28 30 33 37 39 42 44 45 45 45 46 49 49 47 45 45 46 51 55 55 54 53 49 45 45 46
14 13 12 14 15 15 17 19 19 17 18 20 21 23 24 24 25 28 32 34 35 36 37 39 42 43 44 44 44 44 43 41 42 43 45 46 46 43 43 43 39 35 35 37
16 15 14 15 16 17 19 19 18 17 18 19 19 19 21 25 27 29 32 35 35 35 36 38 40 41 43 44 45 45 42 39 37 38 40 39 36 30 27 25 21 16 16 19
18 17 17 17 17 17 18 17 16 16 18 19 19 19 20 24 28 29 30 32 32 33 37 39 39 38 41 44 47 47 43 37 34 33 33 33 32 28 22 17 12 7 5 5
18 17 17 17 16 15 15 15 15 17 20 21 20 21 22 25 28 29 29 30 31 32 35 37 36 35 36 40 44 44 39 32 30 29 29 30 32 30 26 22 19 14 7 3
14 14 14 15 14 12 13 14 15 18 22 21 21 22 23 25 26 27 28 29 28 27 29 31 33 33 33 34 38 37 32 28 26 27 28 30 30 29 28 27 26 23 16 9
9 11 12 12 11 10 11 13 15 18 20 19 18 19 20 21 23 25 26 26 24 24 25 27 29 30 30 31 31 31 28 24 23 25 26 28 28 27 27 27 27 25 20 15
11 11 12 12 10 9 9 12 15 17 18 16 16 16 16 17 20 23 24 23 23 24 24 24 25 25 25 25 24 25 24 21 19 20 22 24 25 26 25 25 25 23 19 15
13 13 13 11 9 9 9 11 13 15 16 16 15 14 14 15 19 22 23 24 25 25 22 19 19 19 20 19 18 19 20 17 16 18 20 20 20 21 21 21 22 21 18 14
12 12 11 9 8 9 10 10 11 13 16 16 14 14 15 16 19 21 23 24 24 22 19 15 13 15 18 17 14 15 16 14 14 18 20 19 17 17 17 17 18 20 18 15
10 11 10 9 9 10 10 10 10 12 14 14 14 15 16 18 19 20 20 21 21 20 17 14 12 13 16 15 12 11 12 11 11 15 18 18 18 18 17 17 18 18 15 14
11 12 13 11 10 11 11 10 10 10 10 10 11 13 15 17 18 19 19 19 19 19 16 12 11 12 13 11 10 10 11 10 10 12 14 16 18 20 20 20 20 17 13 12
14 15 15 13 12 12 11 10 9 8 8 8 9 11 13 15 16 18 18 18 16 14 11 9 8 8 7 7 9 11 11 11 11 11 13 15 17 19 20 19 17 15 12 10
15 16 16 16 15 13 11 9 8 9 9 9 10 11 11 12 13 14 14 13 11 8 6 6 5 4 5 6 9 11 11 11 12 12 13 15 16 16 15 13 11 11 9 7
13 14 16 17 17 14 11 9 10 11 11 11 11 11 10 9 9 9 9 7 6 5 4 2 2 3 4 7 9 9 9 9 11 13 14 14 14 12 10 8 7 8 7 5
11 12 14 16 15 12 11 10 10 10 10 9 9 9 8 7 7 8 7 5 3 4 4 2 1 3 5 7 8 8 8 8 9 11 13 13 12 9 7 7 7 7 6 5
9 9 11 13 12 10 10 10 8 7 5 5 6 7 7 6 8 9 9 7 5 4 4 3 3 3 5 7 8 7 7 8 10 11 11 11 10 8 7 7 8 7 5 5
8 8 9 10 10 8 8 9 7 4 2 2 4 6 6 6 8 10 11 10 7 6 5 4 3 3 5 8 8 7 7 9 11 11 11 9 8 8 7 7 8 7 5 4
Wind_Speed
12 12 10 11 12 12 12 11 11 7 5 3 2 2 3 4 4 3 5 5 6 6 5 5 5 5 5 5 5 5 5 5 5 5 5 5 5 4 4 4 5 4 3 3
14 14 12 13 13 12 13 12 11 8 4 3 2 2 2 3 3 3 3 3 5 6 6 5 4 4 4 4 4 5 4 4 4 5 5 5 5 5 4 4 4 3 3 3
12 13 13 15 13 13 11 8 8 6 3 3 3 2 1 2 3 3 2 3 4 4 5 4 5 4 4 4 4 5 5 5 5 5 5 5 6 5 5 4 4 4 4 3
11 11 15 8 6 6 7 5 4 4 3 2 3 3 2 3 3 4 3 3 3 3 3 4 4 4 4 4 4 4 5 5 5 5 5 5 5 5 5 4 4 4 4 4
10 12 13 9 8 7 6 4 3 2 2 1 2 3 1 3 3 3 3 2 2 2 3 3 3 3 3 4 4 5 5 5 5 5 5 5 5 5 4 4 4 4 4 4
11 13 12 6 3 3 5 5 1 1 1 1 2 2 2 3 3 3 3 2 1 1 2 2 2 3 3 4 4 4 4 4 5 5 5 6 6 5 5 4 5 5 4 4
14 14 9 4 3 4 7 1 4 4 3 2 3 3 3 2 3 3 2 1 1 1 1 1 1 1 2 3 3 3 2 2 3 4 4 5 5 4 4 5 5 5 4 4
12 14 9 3 1 1 3 4 3 4 3 4 4 3 3 3 3 2 1 1 1 1 1 1 1 1 2 3 2 2 2 3 4 4 5 5 4 4 5 5 5 5 5 5
4 3 2 5 4 3 2 2 3 2 3 3 2 2 2 2 2 3 2 2 1 0 0 1 2 2 3 2 1 2 3 3 4 5 4 4 5 5 5 5 5 5 5 5
3 4 2 2 2 2 2 1 1 1 1 1 1 1 0 1 1 2 2 2 2 1 1 1 2 2 2 2 2 2 3 3 3 4 5 4 4 4 5 5 5 4 4 4
6 4 3 2 1 1 2 1 1 2 2 2 2 1 1 2 2 2 2 2 2 1 1 2 1 2 2 2 2 3 2 2 3 4 4 3 4 3 4 4 4 5 4 4
5 2 3 1 1 1 2 2 1 0 1 1 2 2 2 3 2 2 2 1 2 2 2 2 2 2 2 2 2 3 3 3 3 3 3 4 3 2 0 3 5 7 5 3
4 3 3 1 1 1 2 3 1 1 1 0 1 3 4 3 1 1 2 2 2 2 3 2 2 2 2 2 2 3 4 3 3 3 3 4 4 4 3 2 2 3 5 5
2 2 3 3 3 3 4 3 3 3 2 2 2 4 3 2 2 3 2 2 2 2 3 3 3 2 2 2 3 4 4 4 4 3 3 4 4 4 4 4 3 2 3 6
2 3 4 3 4 5 3 4 4 4 3 3 3 3 3 2 3 3 2 1 2 3 3 3 3 2 2 3 4 4 4 3 3 3 4 4 3 3 4 4 4 3 3 3
3 5 5 5 5 5 5 5 5 5 4 3 3 4 3 3 3 2 2 2 2 3 3 3 3 3 2 3 4 4 4 4 4 3 4 4 4 4 4 3 3 3 3 4
5 6 5 5 4 5 6 5 4 5 5 5 4 3 3 3 3 3 3 2 2 2 3 3 3 3 3 3 4 4 3 3 5 4 5 4 3 3 3 3 3 3 3 5
5 5 5 5 5 5 5 5 4 5 4 4 3 3 3 3 3 3 3 3 2 2 3 3 2 2 2 2 2 3 3 3 3 3 3 3 3 3 4 3 3 3 2 3
5 4 4 5 4 3 4 5 4 3 2 2 2 3 3 3 3 3 2 3 3 3 3 2 2 3 3 2 2 2 3 3 3 3 3 2 2 3 3 3 3 3 3 3
4 3 3 4 3 3 4 3 1 1 1 2 2 2 3 3 3 2 2 3 3 3 1 1 2 3 3 2 3 3 3 3 3 3 3 3 2 3 3 3 3 2 2 3
3 3 3 3 3 3 2 1 1 1 1 2 2 3 3 3 3 3 3 3 2 2 1 2 2 2 2 2 3 3 3 3 3 3 2 2 3 3 3 3 2 2 2 3
2 1 2 2 2 2 1 1 1 1 1 2 2 2 3 3 3 3 3 3 2 1 2 2 2 0 2 3 3 3 3 3 3 2 2 2 3 3 3 3 3 3 3 3
1 1 1 2 1 1 2 1 1 1 1 2 2 2 2 3 3 3 3 2 1 1 1 1 0 0 2 3 3 3 3 4 3 2 3 3 3 3 3 3 3 3 2 2
1 1 1 2 1 2 2 2 1 1 2 2 2 2 2 2 2 1 1 0 2 2 1 1 3 3 3 3 3 3 3 3 3 3 3 4 3 3 3 2 2 2 2 2
2 1 1 2 3 2 2 2 2 2 2 2 2 2 2 1 1 1 1 0 1 2 2 3 5 5 4 3 3 3 3 3 3 3 3 2 2 2 2 2 2 1 1 2
2 2 1 2 1 1 2 1 1 1 1 1 1 1 1 1 0 1 1 1 1 1 2 2 2 3 3 3 3 3 3 2 2 2 2 2 2 2 2 1 2 1 1 1
3 2 2 2 1 1 1 1 1 1 1 1 1 2 2 2 1 2 2 2 2 2 2 2 2 2 2 3 2 2 2 2 1 1 1 1 1 1 2 2 1 1 2 1
Wind_Direction
265 267 261 253 246 237 240 249 261 259 239 188 155 123 120 125 130 127 127 134 127 127 130 135 140 144 154 164 164 160 159 168 160 167 170 172 172 173 174 177 182 178 184 189
257 257 253 257 257 255 248 246 252 249 227 170 153 133 108 122 136 135 123 125 135 135 134 139 141 147 156 163 163 158 165 168 164 169 174 174 173 172 177 181 179 185 193 194
258 256 254 247 244 248 254 257 259 259 215 182 157 153 140 146 152 142 138 137 133 142 149 156 158 159 167 170 168 170 177 178 176 177 178 177 182 176 181 185 184 190 197 194
259 257 250 253 255 252 260 272 275 266 234 201 149 152 171 169 157 137 131 131 139 153 155 156 163 166 175 184 180 182 183 180 177 179 179 177 182 183 183 184 191 199 202 194
255 252 252 248 246 250 253 267 296 279 260 220 153 136 144 98 98 110 113 119 132 168 178 162 164 158 166 190 195 194 192 186 185 187 187 186 191 190 186 190 196 201 197 194
247 251 250 247 255 259 245 232 345 348 309 286 230 216 109 71 73 95 95 106 148 193 177 160 160 158 171 200 202 205 204 195 190 191 196 198 195 191 191 195 201 202 199 195
243 252 256 271 261 244 243 180 39 37 29 26 46 35 63 64 69 81 90 108 111 118 153 151 152 163 206 215 216 208 201 193 185 189 199 202 197 194 195 200 204 204 198 196
236 245 248 340 291 344 55 50 40 50 42 51 60 60 63 57 43 24 51 122 136 99 106 143 167 194 229 241 224 200 191 197 195 195 208 206 192 199 205 206 201 200 200 198
241 244 50 41 70 78 73 47 31 26 21 47 65 83 65 44 21 345 345 346 341 279 232 205 202 206 235 254 238 211 205 208 205 206 209 201 197 199 202 202 205 206 204 201
241 208 167 61 69 66 46 33 5 6 17 35 18 74 55 320 313 299 325 330 313 289 270 264 244 228 229 253 232 220 220 222 218 207 208 201 196 200 204 203 206 203 202 202
247 238 210 207 138 59 350 342 354 21 28 26 2 345 354 322 302 306 303 310 310 308 295 282 280 269 252 241 225 224 216 219 228 226 216 204 205 215 220 210 203 202 209 202
254 282 269 237 148 225 284 297 326 5 342 19 332 314 297 274 272 300 308 323 313 300 285 271 257 256 241 212 205 210 223 218 230 232 216 210 206 199 182 227 199 197 205 208
279 288 275 258 225 247 260 272 267 254 237 168 287 283 283 278 275 284 286 288 294 288 284 282 260 241 224 214 215 220 234 230 233 235 225 222 215 203 198 203 207 207 202 194
333 300 265 252 238 234 243 270 275 270 257 203 241 260 267 278 280 278 275 282 287 290 286 282 265 257 235 230 225 228 238 233 235 236 231 234 229 223 217 207 200 201 200 187
249 262 256 246 233 236 246 258 258 259 257 249 259 276 276 272 272 279 280 273 293 293 290 287 284 280 263 250 240 234 238 238 233 244 241 239 234 233 230 218 212 200 164 155
234 245 249 242 238 247 248 250 256 262 264 258 263 264 260 267 275 279 279 268 268 281 289 292 294 290 270 254 249 241 233 232 231 245 250 243 232 235 236 222 212 204 186 165
237 234 238 242 244 256 262 260 260 261 256 246 250 254 254 259 276 276 275 284 289 278 278 280 285 285 271 266 263 261 249 228 227 238 243 242 236 239 239 230 220 206 198 173
241 244 245 248 250 259 271 272 268 268 268 259 245 248 248 246 255 267 273 270 272 281 280 278 293 280 265 271 269 270 269 249 239 248 255 252 256 252 245 230 215 213 211 178
239 242 247 255 256 258 269 279 279 271 286 277 247 246 259 261 253 259 267 268 265 266 276 295 292 278 268 266 277 261 267 270 264 265 265 251 254 256 248 240 229 226 212 185
235 237 246 255 260 264 270 263 252 283 293 292 272 268 268 268 267 274 281 267 261 268 276 303 286 282 270 266 271 262 260 255 253 253 249 244 246 251 250 246 232 224 211 201
227 234 237 249 255 267 270 284 298 288 274 251 247 256 266 272 270 258 250 258 258 255 250 209 236 258 272 279 255 261 267 268 266 263 261 256 251 252 256 245 223 210 214 214
269 258 253 259 258 261 266 272 269 285 287 277 270 273 275 275 270 264 253 259 255 211 230 247 259 325 295 275 265 269 267 272 275 280 279 275 265 252 246 239 226 220 219 216
302 324 312 287 262 254 280 291 286 286 286 279 275 281 286 283 271 265 264 259 244 158 235 280 68 60 292 275 273 261 253 257 262 274 278 274 272 263 251 243 238 227 220 222
306 286 283 289 264 247 259 279 300 305 292 269 253 257 276 287 292 275 264 212 143 165 236 206 192 220 245 262 272 264 252 253 254 262 267 267 267 270 266 259 249 234 225 223
268 278 295 282 260 239 216 232 248 249 259 268 272 263 253 270 299 336 356 336 170 198 234 212 211 216 236 260 259 259 263 267 271 270 272 284 292 297 295 287 284 271 256 237
244 237 239 269 273 250 240 239 251 264 281 290 303 318 323 343 345 337 314 289 276 269 266 244 220 219 237 261 268 270 275 277 268 262 273 275 295 304 299 303 314 308 301 295
223 219 233 250 242 234 245 255 258 282 318 331 335 329 321 321 336 342 333 321 319 314 308 294 275 254 248 258 269 273 279 287 295 310 308 310 324 315 316 340 351 357 350 338